Weather History for Pueblo, CO

Change the Weather History Date:

Sunday, January 20, 2013

  Actual Average Record
Temperature  
Mean Temperature 34 °F 31 °F  
Max Temperature 57 °F 47 °F 78 °F (1971)
Min Temperature 10 °F 14 °F -13 °F (1984)
Degree Days  
Heating Degree Days 31 34  
Month to date heating degree days 779 694  
Since 1 July heating degree days 3001 3057  
Cooling Degree Days 0 0  
Month to date cooling degree days 0 0  
Year to date cooling degree days 0 0  
Moisture  
Dew Point 3 °F    
Average Humidity 34    
Maximum Humidity 56    
Minimum Humidity 11    
Precipitation  
Precipitation 0.00 in 0.01 in 0.58 in (1945)
Month to date precipitation 0.02 0.22  
Year to date precipitation 0.02 0.22  
Snow  
Snow 0.00 in 0.20 in 6.40 in (1966)
Month to date snowfall 1.0 4.2  
Since 1 July snowfall 6.6 15.7  
Snow Depth 0.00 in    
Sea Level Pressure  
Sea Level Pressure 30.24 in    
Wind  
Wind Speed 6 mph (ENE)    
Max Wind Speed 23 mph    
Max Gust Speed 29 mph    
Visibility 10 miles    
Events      
T = Trace of Precipitation, MM = Missing Value Source: NWS Daily Summary

Daily Weather History Graph

Daily Weather History Graph

Search for Another Location

Airport:

Trip Planner

Search our weather history database for the weather conditions in past years. The results will help you decide how hot, cold, wet, or windy it might be!

Date:

Astronomy

Jan. 20, 2013 Rise Set
Actual Time 7:11 AM MST 5:07 PM MST
Civil Twilight 6:42 AM MST 5:36 PM MST
Nautical Twilight 6:10 AM MST 6:08 PM MST
Astronomical Twilight 5:38 AM MST 6:39 PM MST
Moon 12:09 PM MST 1:46 AM MST
Length of Visible Light 10h 53m
Length of Day
9h 56m
Waxing Gibbous, 67% of the Moon is Illuminated
Jan 20
Waxing Gibbous
Jan 26
Full
Feb 3
Last Quarter
Feb 10
New
Feb 17
First Quarter

Hourly Weather History & Observations

Time (MST) Temp. Windchill Dew Point Humidity Pressure Visibility Wind Dir Wind Speed Gust Speed Precip Events Conditions
12:53 AM 19.0 °F 10.0 °F -2.9 °F 38% 30.16 in 10.0 mi WNW 6.9 mph - N/A   Clear
1:53 AM 27.0 °F 16.1 °F 1.0 °F 33% 30.11 in 10.0 mi West 12.7 mph - N/A   Clear
2:53 AM 21.9 °F 17.2 °F 1.0 °F 40% 30.12 in 10.0 mi Variable 3.5 mph - N/A   Clear
3:53 AM 17.1 °F 11.7 °F -0.0 °F 47% 30.12 in 10.0 mi NW 3.5 mph - N/A   Clear
4:53 AM 12.9 °F - -4.0 °F 47% 30.14 in 10.0 mi Calm Calm - N/A   Clear
5:53 AM 16.0 °F - -2.0 °F 45% 30.20 in 10.0 mi Calm Calm - N/A   Clear
6:53 AM 12.9 °F 6.9 °F -2.9 °F 49% 30.22 in 10.0 mi Variable 3.5 mph - N/A   Clear
7:53 AM 18.0 °F 12.7 °F -2.0 °F 41% 30.25 in 10.0 mi SW 3.5 mph - N/A   Clear
8:53 AM 28.9 °F - 3.0 °F 33% 30.26 in 10.0 mi Calm Calm - N/A   Clear
9:53 AM 39.0 °F - 7.0 °F 27% 30.27 in 10.0 mi Calm Calm - N/A   Clear
10:53 AM 52.0 °F - 3.0 °F 14% 30.24 in 10.0 mi Calm Calm - N/A   Clear
11:53 AM 55.9 °F - 1.9 °F 11% 30.19 in 10.0 mi ESE 8.1 mph 16.1 mph N/A   Clear
12:53 PM 55.9 °F - 1.9 °F 11% 30.18 in 10.0 mi ENE 11.5 mph 21.9 mph N/A   Clear
1:53 PM 53.1 °F - 5.0 °F 14% 30.17 in 10.0 mi ENE 19.6 mph - N/A   Clear
2:53 PM 51.1 °F - 7.0 °F 17% 30.20 in 10.0 mi East 11.5 mph - N/A   Clear
3:53 PM 50.0 °F - 6.1 °F 17% 30.22 in 10.0 mi East 13.8 mph - N/A   Clear
4:53 PM 45.0 °F 39.7 °F 6.1 °F 20% 30.27 in 10.0 mi East 10.4 mph - N/A   Clear
5:53 PM 34.0 °F 27.2 °F 3.0 °F 27% 30.30 in 10.0 mi ENE 8.1 mph - N/A   Clear
6:53 PM 33.1 °F 26.9 °F 3.9 °F 29% 30.34 in 10.0 mi ENE 6.9 mph - N/A   Clear
7:53 PM 28.9 °F 21.1 °F 3.9 °F 35% 30.36 in 10.0 mi East 8.1 mph - N/A   Clear
8:53 PM 25.0 °F 19.3 °F 5.0 °F 43% 30.37 in 10.0 mi ENE 4.6 mph - N/A   Clear
9:53 PM 21.9 °F 17.2 °F 7.0 °F 53% 30.36 in 10.0 mi NE 3.5 mph - N/A   Clear
10:53 PM 19.0 °F 11.1 °F 6.1 °F 57% 30.32 in 10.0 mi ENE 5.8 mph - N/A   Clear
11:53 PM 19.0 °F 11.1 °F 8.1 °F 62% 30.29 in 10.0 mi ENE 5.8 mph - N/A   Clear